GW1859 Weather Reports


Display with metric or nautical units.
time (UTC)temp
F
wind
direction
speed
MPH
gust
MPH
rain 1hr
in
rain 24hr
in
rain mn
in
humidity
%
barometer
mb
20260509122835 54 142 0.0 0.0 0.00 0.00 0.00 82 1012.4
20260509122332 54 144 0.0 0.0 0.00 0.00 0.00 82 1012.3
20260509121829 54 145 0.0 0.0 0.00 0.00 0.00 82 1012.3
20260509121326 54 147 0.0 0.0 0.00 0.00 0.00 81 1012.1
20260509120824 54 154 0.0 0.0 0.00 0.00 0.00 81 1012.1
20260509120322 53 158 0.0 0.0 0.00 0.00 0.00 81 1012.1
20260509115820 53 165 0.0 0.0 0.00 0.00 0.00 81 1012.1
20260509115316 53 192 0.0 0.0 0.00 0.00 0.00 82 1012.1
20260509114814 52 153 0.0 0.0 0.00 0.00 0.00 83 1012.2
20260509114313 52 137 0.0 0.0 0.00 0.00 0.00 83 1012.2
20260509113812 52 146 0.0 0.0 0.00 0.00 0.00 83 1011.8
20260509113308 52 151 0.0 0.0 0.00 0.00 0.00 82 1012.0
20260509112805 52 160 1.0 1.0 0.00 0.00 0.00 83 1011.8
20260509112306 52 151 0.0 0.0 0.00 0.00 0.00 83 1011.7
20260509111759 52 144 0.0 0.0 0.00 0.00 0.00 83 1011.7
20260509111256 52 144 0.0 0.0 0.00 0.00 0.00 83 1011.6
20260509110753 52 145 0.0 0.0 0.00 0.00 0.00 83 1011.6
20260509110249 52 144 0.0 0.0 0.00 0.00 0.00 83 1011.6
20260509105748 52 144 0.0 0.0 0.00 0.00 0.00 83 1011.7
20260509105245 52 145 0.0 0.0 0.00 0.00 0.00 82 1011.5
20260509104742 52 145 0.0 0.0 0.00 0.00 0.00 82 1011.7
20260509104239 52 145 0.0 0.0 0.00 0.00 0.00 83 1011.6
20260509103737 52 146 0.0 0.0 0.00 0.00 0.00 82 1011.6
20260509103234 52 149 0.0 0.0 0.00 0.00 0.00 82 1011.8
20260509102732 52 157 0.0 0.0 0.00 0.00 0.00 82 1011.8
20260509102229 52 155 0.0 0.0 0.00 0.00 0.00 82 1011.8
20260509101725 52 151 0.0 0.0 0.00 0.00 0.00 82 1012.0
20260509101221 52 147 0.0 0.0 0.00 0.00 0.00 81 1012.1
20260509100719 52 150 0.0 0.0 0.00 0.00 0.00 81 1011.8
20260509100216 53 156 0.0 0.0 0.00 0.00 0.00 80 1011.8
20260509095713 52 195 0.0 0.0 0.00 0.00 0.00 80 1012.2
20260509095210 53 153 0.0 0.0 0.00 0.00 0.00 80 1012.1
20260509094707 53 146 0.0 0.0 0.00 0.00 0.00 80 1012.2
20260509094204 53 147 0.0 0.0 0.00 0.00 0.00 79 1012.0
20260509093702 53 171 0.0 0.0 0.00 0.00 0.00 79 1012.2
20260509093159 53 171 1.0 1.0 0.00 0.00 0.00 79 1012.0
20260509092657 53 152 0.0 0.0 0.00 0.00 0.00 79 1012.1
20260509092155 53 168 0.0 0.0 0.00 0.00 0.00 79 1011.7
20260509091653 53 177 0.0 0.0 0.00 0.00 0.00 78 1011.8
20260509091148 53 154 0.0 0.0 0.00 0.00 0.00 77 1012.0
20260509090646 53 150 0.0 0.0 0.00 0.00 0.00 77 1012.0
20260509090143 53 162 0.0 0.0 0.00 0.00 0.00 77 1012.0
20260509085641 53 172 0.0 1.0 0.00 0.00 0.00 76 1012.2
20260509085137 53 162 0.0 1.0 0.00 0.00 0.00 76 1012.0
20260509084634 53 187 1.0 2.0 0.00 0.00 0.00 76 1012.2
20260509084131 53 183 1.0 1.0 0.00 0.00 0.00 77 1012.1
20260509083629 53 148 0.0 0.0 0.00 0.00 0.00 78 1012.1
20260509083125 53 150 0.0 0.0 0.00 0.00 0.00 78 1012.1
20260509082623 53 149 0.0 0.0 0.00 0.00 0.00 78 1012.3
20260509082119 53 153 0.0 0.0 0.00 0.00 0.00 77 1012.2
20260509081616 53 204 1.0 1.0 0.00 0.00 0.00 77 1012.1
20260509081113 53 197 0.0 0.0 0.00 0.00 0.00 76 1012.2
20260509080612 53 165 0.0 0.0 0.00 0.00 0.00 76 1012.2
20260509080109 54 188 0.0 0.0 0.00 0.00 0.00 76 1012.3
20260509075607 54 176 0.0 0.0 0.00 0.00 0.00 75 1012.2
20260509075104 54 166 0.0 0.0 0.00 0.00 0.00 75 1012.3
20260509074601 54 172 0.0 1.0 0.00 0.00 0.00 74 1012.2
20260509074057 55 151 0.0 0.0 0.00 0.00 0.00 74 1012.1
20260509073554 55 164 1.0 1.0 0.00 0.00 0.00 73 1012.3
20260509073050 55 201 1.0 1.0 0.00 0.00 0.00 72 1012.3
20260509072547 55 174 0.0 1.0 0.00 0.00 0.00 72 1012.3
20260509072044 55 172 2.0 3.0 0.00 0.00 0.00 71 1012.3
20260509071541 55 181 2.0 2.0 0.00 0.00 0.00 70 1012.4
20260509071038 56 184 1.0 1.0 0.00 0.00 0.00 69 1012.1
20260509070536 56 152 0.0 0.0 0.00 0.00 0.00 70 1012.5
20260509070032 56 209 0.0 1.0 0.00 0.00 0.00 69 1012.2
20260509065527 56 202 1.0 2.0 0.00 0.00 0.00 69 1012.3
20260509065024 55 146 0.0 0.0 0.00 0.00 0.00 71 1012.2
20260509064521 55 147 0.0 0.0 0.00 0.00 0.00 71 1012.1
20260509064019 55 147 0.0 0.0 0.00 0.00 0.00 71 1012.3
20260509063514 54 147 0.0 0.0 0.00 0.00 0.00 72 1012.3
20260509063012 54 149 0.0 0.0 0.00 0.00 0.00 73 1012.1
20260509062509 53 140 0.0 0.0 0.00 0.00 0.00 75 1012.3
20260509062007 51 138 0.0 0.0 0.00 0.00 0.00 78 1012.1
20260509061504 51 138 0.0 0.0 0.00 0.00 0.00 78 1012.0
20260509061001 51 139 0.0 0.0 0.00 0.00 0.00 79 1012.1
20260509060458 51 139 0.0 0.0 0.00 0.00 0.00 80 1012.3
20260509055953 51 139 0.0 0.0 0.00 0.00 0.00 79 1012.3
20260509055449 52 139 0.0 0.0 0.00 0.00 0.00 79 1012.2
20260509054945 52 139 0.0 0.0 0.00 0.00 0.00 79 1012.2
20260509054442 52 139 0.0 0.0 0.00 0.00 0.00 79 1012.2
20260509053940 52 139 0.0 0.0 0.00 0.00 0.00 78 1012.3
20260509053438 52 139 0.0 0.0 0.00 0.00 0.00 78 1012.2
20260509052935 53 139 0.0 0.0 0.00 0.00 0.00 77 1012.1
20260509052433 53 139 0.0 0.0 0.00 0.00 0.00 77 1012.1
20260509051931 53 139 0.0 0.0 0.00 0.00 0.00 75 1012.3
20260509051428 53 139 0.0 0.0 0.00 0.00 0.00 74 1012.3
20260509050925 54 139 0.0 0.0 0.00 0.00 0.00 75 1012.0
20260509050421 54 140 0.0 0.0 0.00 0.00 0.00 73 1012.3
20260509045918 55 140 0.0 0.0 0.00 0.00 0.00 73 1012.3
20260509045415 55 140 0.0 0.0 0.00 0.00 0.00 71 1012.3
20260509044912 56 140 0.0 0.0 0.00 0.00 0.00 71 1012.3
20260509044410 56 140 0.0 0.0 0.00 0.00 0.00 69 1012.3
20260509043907 57 141 0.0 0.0 0.00 0.00 0.00 68 1012.5
20260509043402 57 147 0.0 0.0 0.00 0.00 0.00 68 1012.2
20260509042858 57 152 0.0 0.0 0.00 0.00 0.00 66 1012.5
20260509042355 56 149 0.0 0.0 0.00 0.00 0.00 68 1012.4
20260509041851 55 150 0.0 0.0 0.00 0.00 0.00 71 1012.3
20260509041343 54 156 0.0 0.0 0.00 0.00 0.00 75 1012.2
20260509040841 53 125 0.0 0.0 0.00 0.00 0.00 77 1012.3
20260509040339 54 125 0.0 0.0 0.00 0.00 0.00 76 1012.2
20260509035835 54 125 0.0 0.0 0.00 0.00 0.00 76 1012.3
20260509035333 54 125 0.0 0.0 0.00 0.00 0.00 74 1012.3
20260509034828 55 125 0.0 0.0 0.00 0.00 0.00 75 1012.2
20260509034327 55 125 0.0 0.0 0.00 0.00 0.00 74 1012.1
20260509033823 55 125 0.0 0.0 0.00 0.00 0.00 72 1012.4
20260509033321 56 125 0.0 0.0 0.00 0.00 0.00 72 1012.1
20260509032817 56 125 0.0 0.0 0.00 0.00 0.00 71 1012.1
20260509032314 56 125 0.0 0.0 0.00 0.00 0.00 71 1012.2
20260509031812 57 125 0.0 0.0 0.00 0.00 0.00 70 1011.7
20260509031309 57 125 0.0 0.0 0.00 0.00 0.00 70 1012.0
20260509030807 57 125 0.0 0.0 0.00 0.00 0.00 69 1011.8
20260509030305 57 125 0.0 0.0 0.00 0.00 0.00 69 1011.8
20260509025801 57 125 0.0 0.0 0.00 0.00 0.00 69 1011.7
20260509025256 57 125 0.0 0.0 0.00 0.00 0.00 69 1012.0
20260509024752 58 125 0.0 0.0 0.00 0.00 0.00 69 1011.8
20260509024248 58 125 0.0 0.0 0.00 0.00 0.00 67 1011.6
20260509023746 59 125 0.0 0.0 0.00 0.00 0.00 66 1011.5
20260509023243 59 125 0.0 0.0 0.00 0.00 0.00 65 1011.4
20260509022739 60 125 0.0 0.0 0.00 0.00 0.00 63 1011.3
20260509022237 60 125 0.0 0.0 0.00 0.00 0.00 61 1011.2
20260509021733 61 125 0.0 0.0 0.00 0.00 0.00 60 1011.3
20260509021231 62 125 0.0 0.0 0.00 0.00 0.00 59 1011.4
20260509020729 63 125 0.0 0.0 0.00 0.00 0.00 58 1010.9
20260509020226 64 125 0.0 0.0 0.00 0.00 0.00 56 1011.2
20260509015724 64 125 0.0 0.0 0.00 0.00 0.00 54 1011.2
20260509015222 65 125 0.0 0.0 0.00 0.00 0.00 54 1011.0
20260509014718 65 123 0.0 0.0 0.00 0.00 0.00 53 1011.0
20260509014215 66 123 0.0 0.0 0.00 0.00 0.00 51 1010.8
20260509013712 67 125 0.0 0.0 0.00 0.00 0.00 51 1011.1
20260509013207 67 124 0.0 0.0 0.00 0.00 0.00 50 1010.9
20260509012704 68 110 0.0 1.0 0.00 0.00 0.00 49 1010.9
20260509012201 68 107 1.0 1.0 0.00 0.00 0.00 48 1010.7
20260509011658 69 116 0.0 0.0 0.00 0.00 0.00 47 1010.8
20260509011155 69 130 0.0 0.0 0.00 0.00 0.00 47 1010.6
20260509010653 70 123 0.0 0.0 0.00 0.00 0.00 47 1010.5
20260509010149 71 130 0.0 0.0 0.00 0.00 0.00 46 1010.7
20260509005647 71 120 0.0 0.0 0.00 0.00 0.00 45 1010.7
20260509005144 72 127 0.0 0.0 0.00 0.00 0.00 44 1010.6
20260509004639 73 115 0.0 1.0 0.00 0.00 0.00 43 1010.6
20260509004136 73 122 1.0 1.0 0.00 0.00 0.00 44 1010.6
20260509003635 73 102 2.0 2.0 0.00 0.00 0.00 42 1010.3
20260509003132 74 315 3.0 8.0 0.00 0.00 0.00 41 1010.3
20260509002629 75 115 0.0 0.0 0.00 0.00 0.00 41 1010.2
20260509002126 76 117 0.0 0.0 0.00 0.00 0.00 40 1010.3
20260509001624 77 163 0.0 0.0 0.00 0.00 0.00 40 1010.1
20260509001119 77 356 2.0 2.0 0.00 0.00 0.00 38 1010.0
20260509000618 77 112 2.0 2.0 0.00 0.00 0.00 39 1009.8
20260509000114 78 100 1.0 2.0 0.00 0.00 0.00 38 1009.8
20260508235612 77 124 0.0 0.0 0.00 0.00 0.00 40 1010.0
20260508235108 77 87 0.0 1.0 0.00 0.00 0.00 39 1009.9
20260508234606 79 350 1.0 6.0 0.00 0.00 0.00 38 1010.0
20260508234102 79 111 1.0 1.0 0.00 0.00 0.00 39 1009.8
20260508233601 79 312 3.0 5.0 0.00 0.00 0.00 37 1009.8
20260508233059 78 329 3.0 7.0 0.00 0.00 0.00 37 1009.9
20260508232555 79 62 1.0 3.0 0.00 0.00 0.00 37 1009.7
20260508232052 80 69 1.0 2.0 0.00 0.00 0.00 37 1009.3
20260508231550 80 137 0.0 0.0 0.00 0.00 0.00 37 1009.3
20260508231047 80 140 1.0 2.0 0.00 0.00 0.00 37 1009.5
20260508230543 80 125 2.0 2.0 0.00 0.00 0.00 36 1009.3
20260508230040 80 106 1.0 2.0 0.00 0.00 0.00 37 1009.3
20260508225537 80 316 1.0 3.0 0.00 0.00 0.00 37 1009.6
20260508225034 80 43 3.0 6.0 0.00 0.00 0.00 36 1009.3
20260508224532 81 326 7.0 10.0 0.00 0.00 0.00 37 1009.2
20260508224029 80 104 2.0 2.0 0.00 0.00 0.00 39 1009.1
20260508223527 81 102 2.0 3.0 0.00 0.00 0.00 39 1009.2
20260508223024 80 115 0.0 0.0 0.00 0.00 0.00 41 1009.3
20260508222521 82 347 1.0 2.0 0.00 0.00 0.00 40 1009.0
20260508222018 81 105 2.0 2.0 0.00 0.00 0.00 42 1009.2
20260508221514 80 96 2.0 5.0 0.00 0.00 0.00 42 1008.9
20260508221010 82 75 3.0 6.0 0.00 0.00 0.00 40 1009.0
20260508220507 83 290 2.0 2.0 0.00 0.00 0.00 38 1008.7
20260508220003 82 85 2.0 2.0 0.00 0.00 0.00 37 1008.9
20260508215500 82 26 5.0 7.0 0.00 0.00 0.00 37 1008.8
20260508214956 82 125 0.0 0.0 0.00 0.00 0.00 38 1009.1
20260508214454 81 68 4.0 5.0 0.00 0.00 0.00 38 1008.8
20260508213950 83 7 4.0 6.0 0.00 0.00 0.00 36 1008.7
20260508213448 83 19 3.0 5.0 0.00 0.00 0.00 37 1008.7
20260508212943 82 128 0.0 1.0 0.00 0.00 0.00 39 1008.7
20260508212440 82 331 3.0 3.0 0.00 0.00 0.00 38 1009.0
20260508211936 81 124 2.0 2.0 0.00 0.00 0.00 38 1009.2
20260508211431 81 125 0.0 1.0 0.00 0.00 0.00 41 1009.1
20260508210929 80 103 2.0 2.0 0.00 0.00 0.00 41 1009.1
20260508210426 81 115 2.0 2.0 0.00 0.00 0.00 39 1009.2
20260508205922 78 17 2.0 3.0 0.00 0.00 0.00 41 1009.2
20260508205419 78 122 1.0 3.0 0.00 0.00 0.00 41 1008.8
20260508204915 78 240 1.0 2.0 0.00 0.00 0.00 42 1009.3
20260508204413 78 119 1.0 1.0 0.00 0.00 0.00 45 1009.2
20260508203908 77 48 3.0 5.0 0.00 0.00 0.00 45 1009.5
20260508203404 77 121 0.0 1.0 0.00 0.00 0.00 47 1009.3
20260508202900 78 19 3.0 5.0 0.00 0.00 0.00 43 1009.6
20260508202358 79 298 3.0 3.0 0.00 0.00 0.00 43 1009.7
20260508201855 81 300 3.0 3.0 0.00 0.00 0.00 41 1009.7
20260508201351 80 107 1.0 2.0 0.00 0.00 0.00 45 1009.7
20260508200848 80 144 0.0 0.0 0.00 0.00 0.00 45 1009.6
20260508200345 78 98 0.0 0.0 0.00 0.00 0.00 46 1009.5
20260508195840 77 261 2.0 2.0 0.00 0.00 0.00 49 1009.7
20260508195337 74 277 3.0 3.0 0.00 0.00 0.00 49 1010.0
20260508194833 73 79 1.0 2.0 0.00 0.00 0.00 49 1009.9
20260508194331 73 126 0.0 0.0 0.00 0.00 0.00 52 1009.8
20260508193828 72 84 1.0 2.0 0.00 0.00 0.00 52 1010.1
20260508193324 73 131 0.0 0.0 0.00 0.00 0.00 54 1010.3
20260508192820 72 162 2.0 2.0 0.00 0.00 0.00 53 1010.2
20260508192318 73 203 2.0 2.0 0.00 0.00 0.00 52 1010.2
20260508191814 73 241 1.0 2.0 0.00 0.00 0.00 51 1010.4
20260508191312 73 239 3.0 3.0 0.00 0.00 0.00 52 1010.6
20260508190804 72 155 1.0 1.0 0.00 0.00 0.00 54 1010.2
20260508190259 72 145 2.0 2.0 0.00 0.00 0.00 54 1010.3
20260508185756 73 126 0.0 0.0 0.00 0.00 0.00 55 1010.0
20260508185254 73 348 2.0 2.0 0.00 0.00 0.00 53 1009.7
20260508184750 71 286 2.0 2.0 0.00 0.00 0.00 54 1009.6
20260508184248 71 31 1.0 2.0 0.00 0.00 0.00 55 1009.7
20260508183745 71 87 0.0 1.0 0.00 0.00 0.00 56 1009.8
20260508183241 71 330 2.0 3.0 0.00 0.00 0.00 55 1010.5
20260508182737 72 165 1.0 1.0 0.00 0.00 0.00 55 1010.4
20260508182234 71 127 1.0 2.0 0.00 0.00 0.00 55 1010.6
20260508181729 71 159 1.0 1.0 0.00 0.00 0.00 57 1010.8
20260508181227 71 165 1.0 2.0 0.00 0.00 0.00 57 1011.1
20260508180723 70 171 0.0 0.0 0.00 0.00 0.00 57 1010.6
20260508180220 70 237 3.0 5.0 0.00 0.00 0.00 56 1010.4
20260508175717 71 190 3.0 3.0 0.00 0.00 0.00 56 1010.5
20260508175214 71 251 3.0 3.0 0.00 0.00 0.00 55 1010.5
20260508174712 71 219 3.0 5.0 0.00 0.00 0.00 55 1010.4
20260508174208 71 278 3.0 3.0 0.00 0.00 0.00 55 1010.8
20260508173704 71 178 1.0 1.0 0.00 0.00 0.00 57 1011.1
20260508173200 71 294 1.0 2.0 0.00 0.00 0.00 56 1010.9
20260508172658 72 197 4.0 7.0 0.00 0.00 0.00 55 1011.1
20260508172155 72 166 1.0 2.0 0.00 0.00 0.00 54 1011.2
20260508171651 73 249 2.0 2.0 0.00 0.00 0.00 54 1011.2
20260508171147 73 322 2.0 3.0 0.00 0.00 0.00 53 1011.1
20260508170645 73 307 2.0 5.0 0.00 0.00 0.00 53 1010.8
20260508170142 73 179 2.0 5.0 0.00 0.00 0.00 53 1011.1
20260508165639 74 165 3.0 3.0 0.00 0.00 0.00 52 1010.9
20260508165136 73 234 3.0 5.0 0.00 0.00 0.00 53 1011.0
20260508164632 74 218 2.0 3.0 0.00 0.00 0.00 53 1011.0
20260508164129 73 191 3.0 3.0 0.00 0.00 0.00 53 1011.1
20260508163627 73 226 4.0 6.0 0.00 0.00 0.00 54 1011.2
20260508163123 73 167 3.0 5.0 0.00 0.00 0.00 53 1010.9
20260508162614 72 248 3.0 3.0 0.00 0.00 0.00 56 1011.0
20260508162112 71 177 4.0 5.0 0.00 0.00 0.00 55 1010.7
20260508161608 72 183 4.0 6.0 0.00 0.00 0.00 55 1010.6
20260508161106 71 198 2.0 3.0 0.00 0.00 0.00 57 1010.6
20260508160604 70 159 1.0 2.0 0.00 0.00 0.00 60 1011.0
20260508160101 69 178 1.0 2.0 0.00 0.00 0.00 60 1010.9
20260508155558 69 196 3.0 6.0 0.00 0.00 0.00 60 1011.4
20260508155055 69 161 2.0 2.0 0.00 0.00 0.00 60 1011.4
20260508154552 69 163 2.0 3.0 0.00 0.00 0.00 61 1011.4
20260508154049 68 234 4.0 6.0 0.00 0.00 0.00 61 1011.3
20260508153545 69 229 4.0 5.0 0.00 0.00 0.00 61 1011.3
20260508153042 68 186 3.0 3.0 0.00 0.00 0.00 62 1011.3
20260508152540 67 157 2.0 6.0 0.00 0.00 0.00 63 1011.4
20260508152034 67 211 2.0 3.0 0.00 0.00 0.00 63 1011.5
20260508151531 67 223 2.0 3.0 0.00 0.00 0.00 63 1011.5
20260508151028 66 188 3.0 5.0 0.00 0.00 0.00 64 1011.7
20260508150525 66 214 3.0 3.0 0.00 0.00 0.00 65 1011.8
20260508150021 66 131 1.0 2.0 0.00 0.00 0.00 65 1011.5
20260508145518 65 189 4.0 5.0 0.00 0.00 0.00 66 1011.5
20260508145014 65 133 1.0 1.0 0.00 0.00 0.00 66 1011.5
20260508144512 64 163 3.0 3.0 0.00 0.00 0.00 67 1011.5
20260508144009 64 177 3.0 3.0 0.00 0.00 0.00 67 1012.1
20260508143507 64 181 2.0 2.0 0.00 0.00 0.00 68 1012.4
20260508143003 64 216 1.0 3.0 0.00 0.00 0.00 67 1012.5
20260508142500 64 158 1.0 2.0 0.00 0.00 0.00 67 1012.6
20260508141956 64 170 0.0 0.0 0.00 0.00 0.00 68 1012.3
20260508141453 63 232 2.0 3.0 0.00 0.00 0.00 68 1012.2
20260508140951 63 222 2.0 3.0 0.00 0.00 0.00 69 1012.1
20260508140448 62 163 0.0 0.0 0.00 0.00 0.00 69 1012.6
20260508135943 62 165 3.0 3.0 0.00 0.00 0.00 70 1012.5
20260508135440 62 143 0.0 0.0 0.00 0.00 0.00 71 1012.4
20260508134937 61 198 0.0 1.0 0.00 0.00 0.00 71 1012.4
20260508134433 61 313 2.0 2.0 0.00 0.00 0.00 72 1012.5
20260508133930 60 178 1.0 1.0 0.00 0.00 0.00 72 1012.4
20260508133428 59 161 3.0 3.0 0.00 0.00 0.00 73 1012.4
20260508132924 59 149 0.0 0.0 0.00 0.00 0.00 75 1012.4
20260508132422 58 195 1.0 1.0 0.00 0.00 0.00 74 1012.3
20260508131919 58 314 0.0 0.0 0.00 0.00 0.00 75 1012.4
20260508131414 58 187 2.0 3.0 0.00 0.00 0.00 74 1012.1
20260508130911 57 220 2.0 3.0 0.00 0.00 0.00 75 1012.1
20260508130408 57 191 2.0 2.0 0.00 0.00 0.00 76 1012.0
20260508125904 56 189 2.0 2.0 0.00 0.00 0.00 76 1012.1
20260508125400 56 236 1.0 1.0 0.00 0.00 0.00 76 1012.0
20260508124858 55 147 1.0 1.0 0.00 0.00 0.00 77 1011.6
20260508124355 55 178 1.0 2.0 0.00 0.00 0.00 78 1011.6
20260508123853 54 169 1.0 2.0 0.00 0.00 0.00 78 1011.6
20260508123352 54 220 3.0 5.0 0.00 0.00 0.00 78 1011.6